This demonstration page uses our WeatherBlox Daily Observations layout. Learn more.

Hourly Observations for January 27, 2020

Temp ( °F °C ) Dew Point ( °F °C ) Humidity (%) Winds ( mph kmh ) Pressure ( in mb ) Visibility ( mi km ) Precip ( " mm )
12:54 am 00:54 Clear 24 -4.4 21 -6.1 88 88 Calm 30.02 1017 9 14.48406 0 0
1:54 am 01:54 Clear 24 -4.4 21 -6.1 88 88 Calm 30.02 1017 10 16.0934 0 0
2:54 am 02:54 Cloudy 32 0 27 -2.8 82 82 NNW 12 19 30.02 1017 10 16.0934 0 0
3:54 am 03:54 Mostly Clear 32 0 27 -2.8 82 82 NW 9 15 30.03 1017 10 16.0934 0 0
4:32 am 04:32 Cloudy 32 0 27 -2.8 82 82 NW 6 9 30.07 1018 10 16.0934 0 0
4:54 am 04:54 Cloudy 32 0 27 -2.8 82 82 NNW 8 13 30.05 1018 10 16.0934 0 0
5:18 am 05:18 Cloudy 32 0 28 -2.2 85 85 N 6 9 30.09 1019 10 16.0934 0 0
5:54 am 05:54 Cloudy 34 1.1 29 -1.7 82 82 NNW 10 17 30.06 1018 10 16.0934 0 0
6:54 am 06:54 Cloudy 34 1.1 29 -1.7 82 82 NNW 14 22 30.07 1018 10 16.0934 0 0
7:54 am 07:54 Cloudy 34 1.1 29 -1.7 82 82 NNW 12 19 30.09 1019 9 14.48406 0 0
8:54 am 08:54 Cloudy 35 1.7 29 -1.7 78 78 NW 12 19 30.1 1019 9 14.48406 0 0
9:54 am 09:54 Cloudy 35 1.7 29 -1.7 78 78 NNW 8 13 30.13 1020 10 16.0934 0 0
10:31 am 10:31 Cloudy 35 1.7 30 -1.1 82 82 N 8 13 30.16 1021 8 12.87472 0 0
10:54 am 10:54 Cloudy 35 1.7 29 -1.7 78 78 N 10 17 30.15 1021 8 12.87472 0 0
11:03 am 11:03 Cloudy 35 1.7 29 -1.7 78 78 N 10 17 30.17 1022 8 12.87472 0 0
11:54 am 11:54 Cloudy 35 1.7 30 -1.1 82 82 N 9 15 30.14 1021 9 14.48406 0 0
12:54 pm 12:54 Cloudy 36 2.2 29 -1.7 76 76 N 14 22 30.13 1020 10 16.0934 0 0
1:01 pm 13:01 Cloudy 36 2.2 29 -1.7 76 76 N 12 19 30.14 1021 10 16.0934 0 0
1:54 pm 13:54 Cloudy 35 1.7 29 -1.7 78 78 N 8 13 30.12 1020 10 16.0934 0 0
2:54 pm 14:54 Cloudy 35 1.7 29 -1.7 78 78 N 9 15 30.11 1020 10 16.0934 0 0
3:54 pm 15:54 Cloudy 34 1.1 28 -2.2 79 79 N 8 13 30.12 1020 10 16.0934 0 0
4:54 pm 16:54 Cloudy 33 0.6 28 -2.2 82 82 N 9 15 30.13 1020 10 16.0934 0 0
5:54 pm 17:54 Cloudy 32 0 27 -2.8 82 82 NNE 7 11 30.14 1021 10 16.0934 0 0
7:54 pm 19:54 Cloudy 33 0.6 28 -2.2 82 82 NE 7 11 30.16 1022 10 16.0934 0 0
8:54 pm 20:54 Cloudy 32 0 27 -2.8 82 82 N 8 13 30.17 1022 10 16.0934 0 0
9:54 pm 21:54 Cloudy 31 -0.6 26 -3.3 82 82 NNE 9 15 30.18 1022 10 16.0934 0 0
10:40 pm 22:40 Cloudy 31 -0.6 26 -3.3 82 82 NE 5 7 30.2 1023 10 16.0934 0 0
10:54 pm 22:54 Cloudy 31 -0.6 26 -3.3 82 82 NE 5 7 30.18 1022 10 16.0934 0 0
11:49 pm 23:49 Cloudy 30 -1 27 -3 86 86 N 5 7 30.22 1024 10 16.0934 0 0
11:54 pm 23:54 Cloudy 31 -0.6 27 -2.8 85 85 N 7 11 30.19 1022 10 16.0934 0 0

Powered by AerisWeather